Baton Rouge, LA

10:30 AM CDT on October 19, 2019 (GMT -0500)
Baton Rouge Metro-Ryan

Weather History for KBTR - September, 2019

Change the Weather History Date:

Saturday, September 21, 2019

  Actual Average Record
Temperature  
Mean Temperature 80 °F 77 °F  
Max Temperature 89 °F 88 °F 100 °F (1921)
Min Temperature 70 °F 67 °F 44 °F (1897)
Degree Days  
Heating Degree Days 0 0  
Month to date heating degree days 0 0  
Since 1 July heating degree days 0 0  
Cooling Degree Days 15 12  
Month to date cooling degree days 400 312  
Year to date cooling degree days 2738 2473  
Growing Degree Days 30 (Base 50)    
Moisture  
Dew Point 70 °F    
Average Humidity 77    
Maximum Humidity 97    
Minimum Humidity 56    
Precipitation  
Precipitation T in 0.14 in 5.00 in (1909)
Month to date precipitation 2.54 3.26  
Year to date precipitation 51.75 44.97  
Snow  
Snow 0.00 in - - ()
Month to date snowfall 0.0  
Since 1 July snowfall 0.0  
Since 1 September snowfall 0.0  
Snow Depth 0.00 in    
Sea Level Pressure  
Sea Level Pressure 30.11 in    
Wind  
Wind Speed 8 mph (East)    
Max Wind Speed 20 mph    
Max Gust Speed 24 mph    
Visibility 10 miles    
Events      
T = Trace of Precipitation, MM = Missing Value Source: NWS Daily Summary

Daily Weather History Graph

Daily Weather History Graph

Search for Another Location

Airport or City:

Astronomy

Sep. 21, 2019 Rise Set
Actual Time 6:52 AM CDT 7:02 PM CDT
Civil Twilight 6:28 AM CDT 7:26 PM CDT
Nautical Twilight 6:00 AM CDT 7:54 PM CDT
Astronomical Twilight 5:31 AM CDT 8:22 PM CDT
Moon No Moon Rise 1:32 PM CDT (9/21)
Length of Visible Light 12h 58m
Length of Day
12h 10m
Waning Gibbous, 54% of the Moon is Illuminated
Sep 21
Waning Gibbous
Sep 21
Last Quarter
Sep 28
New
Oct 5
First Quarter
Oct 13
Full

Hourly Weather History & Observations

Time (CDT) Temp. Heat Index Dew Point Humidity Pressure Visibility Wind Dir Wind Speed Gust Speed Precip Events Conditions
12:53 AM 72.0 °F - 69.1 °F 91% 30.12 in 10.0 mi NE 3.5 mph - N/A   Clear
1:53 AM 71.1 °F - 68.0 °F 90% 30.11 in 10.0 mi ENE 4.6 mph - N/A   Clear
2:53 AM 71.1 °F - 68.0 °F 90% 30.10 in 10.0 mi NE 5.8 mph - N/A   Clear
3:53 AM 70.0 °F - 68.0 °F 93% 30.10 in 10.0 mi ENE 4.6 mph - N/A   Clear
4:53 AM 70.0 °F - 66.9 °F 90% 30.11 in 10.0 mi ENE 4.6 mph - N/A   Clear
5:53 AM 70.0 °F - 68.0 °F 93% 30.12 in 10.0 mi ENE 4.6 mph - N/A   Clear
6:53 AM 70.0 °F - 66.9 °F 90% 30.12 in 10.0 mi NE 4.6 mph - N/A   Clear
7:53 AM 73.0 °F - 69.1 °F 87% 30.14 in 10.0 mi ENE 5.8 mph - N/A   Clear
8:53 AM 78.1 °F - 70.0 °F 76% 30.15 in 10.0 mi ENE 8.1 mph - N/A   Clear
10:53 AM 84.0 °F 89.0 °F 71.1 °F 65% 30.16 in 10.0 mi East 11.5 mph - N/A   Clear
11:53 AM 86.0 °F 92.2 °F 72.0 °F 63% 30.15 in 10.0 mi East 6.9 mph - N/A   Mostly Cloudy
12:53 PM 87.1 °F 92.8 °F 71.1 °F 59% 30.13 in 10.0 mi East 9.2 mph - N/A   Mostly Cloudy
1:53 PM 89.1 °F 96.0 °F 72.0 °F 57% 30.11 in 10.0 mi East 12.7 mph - 0.00 in   Mostly Cloudy
2:53 PM 87.1 °F 93.6 °F 72.0 °F 61% 30.09 in 10.0 mi SSE 13.8 mph - 0.00 in   Mostly Cloudy
3:53 PM 86.0 °F 92.2 °F 72.0 °F 63% 30.08 in 10.0 mi ESE 11.5 mph - N/A   Mostly Cloudy
4:53 PM 84.0 °F 89.6 °F 72.0 °F 67% 30.09 in 10.0 mi ESE 10.4 mph - N/A   Mostly Cloudy
5:53 PM 82.0 °F 86.7 °F 72.0 °F 71% 30.09 in 10.0 mi East 15.0 mph - N/A   Clear
6:53 PM 79.0 °F - 72.0 °F 79% 30.09 in 10.0 mi East 10.4 mph - N/A   Partly Cloudy
8:53 PM 77.0 °F - 72.0 °F 84% 30.12 in 10.0 mi ESE 10.4 mph - N/A   Mostly Cloudy
9:53 PM 77.0 °F - 71.1 °F 82% 30.12 in 10.0 mi ESE 5.8 mph - N/A   Overcast
10:53 PM 77.0 °F - 71.1 °F 82% 30.12 in 10.0 mi SE 4.6 mph - N/A   Overcast
11:53 PM 75.0 °F - 70.0 °F 84% 30.11 in 10.0 mi ENE 3.5 mph - N/A   Partly Cloudy